Simultaneous Nadir Overpasses (SNOs) Predictions

Prediction of SNOs between FY3D and AQUA Satellite Orbit:

Table of predicted SNOs for the next 14.0 days since TLE Epoch: 8/12/2023
Index Date (FY3D) Time (FY3D) Lat,Lon (FY3D) SZA (FY3D ) Date (AQUA) Time (AQUA) Lat,Lon (AQUA) SZA (AQUA ) Distance(km) Time Diff (sec)
1 08/12/2023 10:44:04 -78.66,-179.21 115.69 08/12/2023 10:44:17 -78.66,-179.32 115.68 2.60 13
2 08/12/2023 11:34:45 78.44, -10.57 64.04 08/12/2023 11:33:36 78.43, -10.43 64.04 3.13 69
3 08/14/2023 23:39:58 -80.55, -31.18 111.67 08/14/2023 23:41:12 -80.79, -30.57 111.57 29.34 74
4 08/15/2023 00:29:42 78.70, 154.13 65.15 08/15/2023 00:29:36 78.70, 154.19 65.15 1.37 6
5 08/17/2023 13:24:39 78.96, -41.27 66.30 08/17/2023 13:25:35 78.95, -41.20 66.27 1.78 56
6 08/17/2023 14:15:12 -78.52, 128.91 114.30 08/17/2023 14:14:49 -78.53, 128.80 114.28 2.70 23
7 08/20/2023 03:10:11 -78.86, -66.93 113.03 08/20/2023 03:10:49 -78.86, -66.95 113.04 0.71 38
8 08/20/2023 04:00:47 78.47, 102.85 66.46 08/20/2023 04:00:04 78.48, 102.81 66.48 0.88 43
9 08/22/2023 16:55:43 78.71, -92.31 67.61 08/22/2023 16:56:01 78.72, -92.44 67.62 2.93 18
10 08/22/2023 17:46:19 -78.37, 77.12 112.84 08/22/2023 17:45:17 -78.38, 77.05 112.82 1.72 62



Historial Predications of SNOs between FY3D and AQUA
